{"data":{"norad_id":60927,"intl_designator":"2024-155D","name":"STARLINK-11243 [DTC]","alt_names":[],"object_type":"PAYLOAD","status":"ACTIVE","operator":null,"country":"US","launch_date":"2024-08-31","launch_site_code":"AFWTR","launch_vehicle":null,"mission":null,"orbit_class":"UNKNOWN","rcs_meters":null,"size_class":null,"mass_kg":null,"dimensions":null,"purposes":["comms"],"wikipedia_slug":null,"has_3d_model":false,"image_url":null,"decayed_at":null,"tle_current":{"epoch":"2026-05-24T19:03:29.919456Z","epoch_age_seconds":88853,"freshness":"FRESH","line1":"1 60927U 24155D   26144.79409629  .00000784  00000+0  11324-4 0  9997","line2":"2 60927  53.1582 326.2174 0000423  37.0804 323.0243 15.69703901100353","mean_motion":15.69703901,"eccentricity":4.23e-5,"inclination_deg":53.1582,"raan_deg":326.2174,"arg_perigee_deg":37.0804,"mean_anomaly_deg":323.0243,"bstar":1.1324e-5,"rev_number":10035,"period_min":91.737046654635,"perigee_km":359.45919110481,"apogee_km":360.02921585463,"semimajor_km":6737.8812034797,"source":"CELESTRAK","updated_at":"2026-05-25T13:38:19.317525Z"}}}